Time,TemperatureF,DewpointF,PressureIn,WindDirection,WindDirectionDegrees,WindSpeedMPH,WindSpeedGustMPH,Humidity,HourlyPrecipIn,Conditions,Clouds,dailyrainin,SoftwareType,DateUTC
2013-04-13 00:04:00,40.8,24.6,28.50,East,99,0.0,0.0,52,0.00,,---,0.00,VWS V14.00,2013-04-13 05:04:00,
2013-04-13 00:09:00,40.6,24.9,28.47,East,99,0.0,0.0,53,0.00,,---,0.00,VWS V14.00,2013-04-13 05:09:00,
2013-04-13 00:14:00,40.5,25.1,28.47,East,99,0.0,0.0,54,0.00,,---,0.00,VWS V14.00,2013-04-13 05:14:00,
2013-04-13 00:19:00,40.3,25.0,28.47,East,99,0.0,0.0,54,0.00,,---,0.00,VWS V14.00,2013-04-13 05:19:00,
2013-04-13 00:24:00,40.1,24.8,28.50,East,99,0.0,0.0,54,0.00,,---,0.00,VWS V14.00,2013-04-13 05:24:00,
2013-04-13 00:29:00,39.9,24.6,28.50,East,99,0.0,0.0,54,0.00,,---,0.00,VWS V14.00,2013-04-13 05:29:00,
2013-04-13 00:34:00,39.7,24.9,28.50,East,99,0.0,0.0,55,0.00,,---,0.00,VWS V14.00,2013-04-13 05:34:00,
2013-04-13 00:39:00,39.4,24.6,28.50,East,99,0.0,0.0,55,0.00,,---,0.00,VWS V14.00,2013-04-13 05:39:00,
2013-04-13 00:44:00,39.2,24.8,28.50,East,99,0.0,0.0,56,0.00,,---,0.00,VWS V14.00,2013-04-13 05:44:00,
2013-04-13 00:49:00,38.8,24.5,28.50,East,99,0.0,0.0,56,0.00,,---,0.00,VWS V14.00,2013-04-13 05:49:00,
2013-04-13 00:54:00,38.7,24.8,28.50,East,99,0.0,0.0,57,0.00,,---,0.00,VWS V14.00,2013-04-13 05:54:00,
2013-04-13 01:00:00,38.7,25.2,28.50,East,99,0.0,0.0,58,0.00,,---,0.00,VWS V14.00,2013-04-13 06:00:00,
2013-04-13 01:05:00,38.7,25.2,28.50,East,99,0.0,0.0,58,0.00,,---,0.00,VWS V14.00,2013-04-13 06:05:00,
2013-04-13 01:10:00,38.5,25.0,28.50,East,99,0.0,0.0,58,0.00,,---,0.00,VWS V14.00,2013-04-13 06:10:00,
2013-04-13 01:15:00,38.1,24.7,28.50,East,99,0.0,0.0,58,0.00,,---,0.00,VWS V14.00,2013-04-13 06:15:00,
2013-04-13 01:20:00,37.9,24.9,28.50,East,99,0.0,0.0,59,0.00,,---,0.00,VWS V14.00,2013-04-13 06:20:00,
2013-04-13 01:25:00,37.8,24.7,28.50,East,99,0.0,0.0,59,0.00,,---,0.00,VWS V14.00,2013-04-13 06:25:00,
2013-04-13 01:30:00,37.8,25.1,28.50,East,99,0.0,0.0,60,0.00,,---,0.00,VWS V14.00,2013-04-13 06:30:00,
2013-04-13 01:35:00,37.8,25.1,28.50,East,99,0.0,0.0,60,0.00,,---,0.00,VWS V14.00,2013-04-13 06:35:00,
2013-04-13 01:40:00,37.6,25.4,28.50,East,99,0.0,0.0,61,0.00,,---,0.00,VWS V14.00,2013-04-13 06:40:00,
2013-04-13 01:45:00,37.8,25.9,28.50,East,99,0.0,0.0,62,0.00,,---,0.00,VWS V14.00,2013-04-13 06:45:00,
2013-04-13 01:51:00,37.8,25.9,28.50,East,99,0.0,0.0,62,0.00,,---,0.00,VWS V14.00,2013-04-13 06:51:00,
2013-04-13 01:56:00,37.6,25.8,28.50,East,99,0.0,0.0,62,0.00,,---,0.00,VWS V14.00,2013-04-13 06:56:00,
2013-04-13 02:02:00,37.6,26.1,28.50,East,99,0.0,0.0,63,0.00,,---,0.00,VWS V14.00,2013-04-13 07:02:00,
2013-04-13 02:07:00,37.4,26.0,28.50,East,99,0.0,0.0,63,0.00,,---,0.00,VWS V14.00,2013-04-13 07:07:00,
2013-04-13 02:12:00,37.4,26.4,28.50,East,99,0.0,0.0,64,0.00,,---,0.00,VWS V14.00,2013-04-13 07:12:00,
2013-04-13 02:17:00,37.2,26.5,28.50,East,99,0.0,0.0,65,0.00,,---,0.00,VWS V14.00,2013-04-13 07:17:00,
2013-04-13 02:22:00,37.0,26.4,28.50,East,99,0.0,0.0,65,0.00,,---,0.00,VWS V14.00,2013-04-13 07:22:00,
2013-04-13 02:27:00,36.9,26.2,28.50,East,99,0.0,0.0,65,0.00,,---,0.00,VWS V14.00,2013-04-13 07:27:00,
2013-04-13 02:32:00,36.7,26.0,28.50,East,99,0.0,0.0,65,0.00,,---,0.00,VWS V14.00,2013-04-13 07:32:00,
2013-04-13 02:37:00,36.3,25.7,28.50,East,99,0.0,0.0,65,0.00,,---,0.00,VWS V14.00,2013-04-13 07:37:00,
2013-04-13 02:43:00,36.0,25.7,28.50,East,99,0.0,0.0,66,0.00,,---,0.00,VWS V14.00,2013-04-13 07:43:00,
2013-04-13 02:48:00,35.8,25.5,28.50,East,99,0.0,0.0,66,0.00,,---,0.00,VWS V14.00,2013-04-13 07:48:00,
2013-04-13 02:53:00,35.4,25.6,28.50,East,99,0.0,0.0,67,0.00,,---,0.00,VWS V14.00,2013-04-13 07:53:00,
2013-04-13 02:58:00,35.2,25.4,28.50,East,99,0.0,0.0,67,0.00,,---,0.00,VWS V14.00,2013-04-13 07:58:00,
2013-04-13 03:03:00,35.1,25.2,28.50,East,99,0.0,0.0,67,0.00,,---,0.00,VWS V14.00,2013-04-13 08:03:00,
2013-04-13 03:08:00,35.1,25.6,28.50,East,99,0.0,0.0,68,0.00,,---,0.00,VWS V14.00,2013-04-13 08:08:00,
2013-04-13 03:13:00,35.1,25.9,28.50,East,99,0.0,0.0,69,0.00,,---,0.00,VWS V14.00,2013-04-13 08:13:00,
2013-04-13 03:18:00,35.2,26.5,28.50,East,99,0.0,0.0,70,0.00,,---,0.00,VWS V14.00,2013-04-13 08:18:00,
2013-04-13 03:23:00,35.2,26.5,28.50,East,99,0.0,0.0,70,0.00,,---,0.00,VWS V14.00,2013-04-13 08:23:00,
2013-04-13 03:29:00,35.2,26.8,28.50,East,99,0.0,0.0,71,0.00,,---,0.00,VWS V14.00,2013-04-13 08:29:00,
2013-04-13 03:34:00,35.2,26.8,28.50,East,99,0.0,0.0,71,0.00,,---,0.00,VWS V14.00,2013-04-13 08:34:00,
2013-04-13 03:39:00,35.2,27.1,28.50,East,99,0.0,0.0,72,0.00,,---,0.00,VWS V14.00,2013-04-13 08:39:00,
2013-04-13 03:44:00,35.2,27.5,28.50,East,99,0.0,0.0,73,0.00,,---,0.00,VWS V14.00,2013-04-13 08:44:00,
2013-04-13 03:49:00,35.1,27.6,28.47,East,99,0.0,0.0,74,0.00,,---,0.00,VWS V14.00,2013-04-13 08:49:00,
2013-04-13 03:54:00,35.1,27.6,28.47,East,99,0.0,0.0,74,0.00,,---,0.00,VWS V14.00,2013-04-13 08:54:00,
2013-04-13 04:00:00,34.9,27.5,28.47,East,99,0.0,0.0,74,0.00,,---,0.00,VWS V14.00,2013-04-13 09:00:00,
2013-04-13 04:05:00,34.7,27.6,28.50,East,99,0.0,0.0,75,0.00,,---,0.00,VWS V14.00,2013-04-13 09:05:00,
2013-04-13 04:11:00,34.5,27.4,28.50,East,99,0.0,0.0,75,0.00,,---,0.00,VWS V14.00,2013-04-13 09:11:00,
2013-04-13 04:16:00,34.3,27.2,28.50,East,99,0.0,0.0,75,0.00,,---,0.00,VWS V14.00,2013-04-13 09:16:00,
2013-04-13 04:21:00,34.2,27.1,28.47,East,99,0.0,0.0,75,0.00,,---,0.00,VWS V14.00,2013-04-13 09:21:00,
2013-04-13 04:26:00,34.0,26.9,28.47,East,99,0.0,0.0,75,0.00,,---,0.00,VWS V14.00,2013-04-13 09:26:00,
2013-04-13 04:32:00,34.2,27.1,28.47,East,99,0.0,0.0,75,0.00,,---,0.00,VWS V14.00,2013-04-13 09:32:00,
2013-04-13 04:37:00,34.3,27.2,28.47,East,99,0.0,0.0,75,0.00,,---,0.00,VWS V14.00,2013-04-13 09:37:00,
2013-04-13 04:42:00,34.3,27.6,28.47,East,99,0.0,0.0,76,0.00,,---,0.00,VWS V14.00,2013-04-13 09:42:00,
2013-04-13 04:47:00,34.5,27.8,28.47,East,99,0.0,0.0,76,0.00,,---,0.00,VWS V14.00,2013-04-13 09:47:00,
2013-04-13 04:52:00,34.3,27.6,28.47,East,99,0.0,0.0,76,0.00,,---,0.00,VWS V14.00,2013-04-13 09:52:00,
2013-04-13 04:57:00,34.3,27.6,28.47,East,99,0.0,0.0,76,0.00,,---,0.00,VWS V14.00,2013-04-13 09:57:00,
2013-04-13 05:02:00,34.2,27.4,28.47,East,99,0.0,0.0,76,0.00,,---,0.00,VWS V14.00,2013-04-13 10:02:00,
2013-04-13 05:07:00,34.0,27.2,28.47,East,99,0.0,0.0,76,0.00,,---,0.00,VWS V14.00,2013-04-13 10:07:00,
2013-04-13 05:12:00,34.0,27.2,28.47,East,99,0.0,0.0,76,0.00,,---,0.00,VWS V14.00,2013-04-13 10:12:00,
2013-04-13 05:17:00,33.8,27.4,28.47,East,99,0.0,0.0,77,0.00,,---,0.00,VWS V14.00,2013-04-13 10:17:00,
2013-04-13 05:22:00,33.6,27.2,28.47,East,99,0.0,0.0,77,0.00,,---,0.00,VWS V14.00,2013-04-13 10:22:00,
2013-04-13 05:27:00,33.4,27.0,28.47,East,99,0.0,0.0,77,0.00,,---,0.00,VWS V14.00,2013-04-13 10:27:00,
2013-04-13 05:33:00,33.3,26.8,28.47,East,99,0.0,0.0,77,0.00,,---,0.00,VWS V14.00,2013-04-13 10:33:00,
2013-04-13 05:38:00,33.1,26.7,28.47,East,99,0.0,0.0,77,0.00,,---,0.00,VWS V14.00,2013-04-13 10:38:00,
2013-04-13 05:43:00,32.7,26.3,28.47,East,99,0.0,0.0,77,0.00,,---,0.00,VWS V14.00,2013-04-13 10:43:00,
2013-04-13 05:49:00,32.5,26.1,28.47,East,99,0.0,0.0,77,0.00,,---,0.00,VWS V14.00,2013-04-13 10:49:00,
2013-04-13 05:54:00,32.5,26.1,28.47,East,99,0.0,0.0,77,0.00,,---,0.00,VWS V14.00,2013-04-13 10:54:00,
2013-04-13 05:59:00,32.4,26.0,28.47,East,99,0.0,0.0,77,0.00,,---,0.00,VWS V14.00,2013-04-13 10:59:00,
2013-04-13 06:04:00,32.2,25.8,28.47,East,99,0.0,0.0,77,0.00,,---,0.00,VWS V14.00,2013-04-13 11:04:00,
2013-04-13 06:09:00,32.2,26.1,28.47,East,99,0.0,0.0,78,0.00,,---,0.00,VWS V14.00,2013-04-13 11:09:00,
2013-04-13 06:15:00,32.0,25.9,28.47,East,99,0.0,0.0,78,0.00,,---,0.00,VWS V14.00,2013-04-13 11:15:00,
2013-04-13 06:20:00,32.2,26.1,28.47,East,99,0.0,0.0,78,0.00,,---,0.00,VWS V14.00,2013-04-13 11:20:00,
2013-04-13 06:25:00,32.2,26.1,28.47,East,99,0.0,0.0,78,0.00,,---,0.00,VWS V14.00,2013-04-13 11:25:00,
2013-04-13 06:30:00,32.2,26.1,28.47,East,99,0.0,0.0,78,0.00,,---,0.00,VWS V14.00,2013-04-13 11:30:00,
2013-04-13 06:35:00,32.2,26.1,28.47,East,99,0.0,0.0,78,0.00,,---,0.00,VWS V14.00,2013-04-13 11:35:00,
2013-04-13 06:40:00,32.2,26.1,28.47,East,99,0.0,0.0,78,0.00,,---,0.00,VWS V14.00,2013-04-13 11:40:00,
2013-04-13 06:45:00,32.2,26.1,28.47,East,99,0.0,0.0,78,0.00,,---,0.00,VWS V14.00,2013-04-13 11:45:00,
2013-04-13 06:50:00,32.2,26.1,28.47,East,99,0.0,0.0,78,0.00,,---,0.00,VWS V14.00,2013-04-13 11:50:00,
2013-04-13 06:55:00,32.0,26.2,28.47,East,99,0.0,0.0,79,0.00,,---,0.00,VWS V14.00,2013-04-13 11:55:00,
2013-04-13 07:00:00,32.0,26.2,28.47,East,99,0.0,0.0,79,0.00,,---,0.00,VWS V14.00,2013-04-13 12:00:00,
2013-04-13 07:05:00,32.0,26.2,28.47,East,99,0.0,0.0,79,0.00,,---,0.00,VWS V14.00,2013-04-13 12:05:00,
2013-04-13 07:11:00,32.0,26.2,28.47,East,99,0.0,0.0,79,0.00,,---,0.00,VWS V14.00,2013-04-13 12:11:00,
2013-04-13 07:17:00,32.2,26.4,28.47,East,99,0.0,0.0,79,0.00,,---,0.00,VWS V14.00,2013-04-13 12:17:00,
2013-04-13 07:22:00,32.2,26.4,28.47,East,99,0.0,0.0,79,0.00,,---,0.00,VWS V14.00,2013-04-13 12:22:00,
2013-04-13 07:27:00,32.2,26.4,28.47,East,99,0.0,0.0,79,0.00,,---,0.00,VWS V14.00,2013-04-13 12:27:00,
2013-04-13 07:32:00,32.2,26.4,28.47,East,99,0.0,0.0,79,0.00,,---,0.00,VWS V14.00,2013-04-13 12:32:00,
2013-04-13 07:38:00,32.4,26.9,28.47,East,99,0.0,0.0,80,0.00,,---,0.00,VWS V14.00,2013-04-13 12:38:00,
2013-04-13 07:43:00,32.7,27.2,28.47,East,99,0.0,0.0,80,0.00,,---,0.00,VWS V14.00,2013-04-13 12:43:00,
2013-04-13 07:48:00,33.1,27.6,28.47,East,99,0.0,0.0,80,0.00,,---,0.00,VWS V14.00,2013-04-13 12:48:00,
2013-04-13 07:54:00,33.6,28.4,28.47,East,99,0.0,0.0,81,0.00,,---,0.00,VWS V14.00,2013-04-13 12:54:00,
2013-04-13 07:59:00,34.0,28.8,28.47,East,99,0.0,0.0,81,0.00,,---,0.00,VWS V14.00,2013-04-13 12:59:00,
2013-04-13 08:04:00,34.5,29.3,28.47,East,99,0.0,0.0,81,0.00,,---,0.00,VWS V14.00,2013-04-13 13:04:00,
2013-04-13 08:09:00,35.2,30.3,28.47,ESE,105,0.0,0.0,82,0.00,,---,0.00,VWS V14.00,2013-04-13 13:09:00,
2013-04-13 08:14:00,35.8,30.8,28.47,ESE,105,0.0,0.0,82,0.00,,---,0.00,VWS V14.00,2013-04-13 13:14:00,
2013-04-13 08:19:00,36.5,31.8,28.47,ESE,105,0.0,0.0,83,0.00,,---,0.00,VWS V14.00,2013-04-13 13:19:00,
2013-04-13 08:24:00,37.4,32.7,28.44,ESE,105,0.0,0.0,83,0.00,,---,0.00,VWS V14.00,2013-04-13 13:24:00,
2013-04-13 08:29:00,38.7,34.0,28.44,ESE,105,0.0,0.0,83,0.00,,---,0.00,VWS V14.00,2013-04-13 13:29:00,
2013-04-13 08:34:00,40.3,35.8,28.44,SE,131,2.7,3.6,84,0.00,,---,0.00,VWS V14.00,2013-04-13 13:34:00,
2013-04-13 08:39:00,41.9,37.4,28.44,SSE,152,4.0,4.0,84,0.00,,---,0.00,VWS V14.00,2013-04-13 13:39:00,
2013-04-13 08:44:00,43.3,38.8,28.44,SE,125,3.6,4.0,84,0.00,,---,0.00,VWS V14.00,2013-04-13 13:44:00,
2013-04-13 08:50:00,44.8,39.9,28.44,SE,135,2.7,3.1,83,0.00,,---,0.00,VWS V14.00,2013-04-13 13:50:00,
2013-04-13 08:55:00,46.0,40.9,28.44,SE,136,4.9,4.9,82,0.00,,---,0.00,VWS V14.00,2013-04-13 13:55:00,
2013-04-13 09:00:00,46.8,41.2,28.44,SSE,148,2.7,2.7,81,0.00,,---,0.00,VWS V14.00,2013-04-13 14:00:00,
2013-04-13 09:05:00,47.7,41.8,28.44,SE,128,4.0,5.4,80,0.00,,---,0.00,VWS V14.00,2013-04-13 14:05:00,
2013-04-13 09:10:00,48.6,42.0,28.44,SSE,149,3.6,3.6,78,0.00,,---,0.00,VWS V14.00,2013-04-13 14:10:00,
2013-04-13 09:15:00,49.5,41.9,28.44,SSE,166,4.0,4.0,75,0.00,,---,0.00,VWS V14.00,2013-04-13 14:15:00,
2013-04-13 09:20:00,50.2,41.5,28.44,East,97,2.7,3.6,72,0.00,,---,0.00,VWS V14.00,2013-04-13 14:20:00,
2013-04-13 09:25:00,50.9,40.7,28.44,SE,138,0.0,3.6,68,0.00,,---,0.00,VWS V14.00,2013-04-13 14:25:00,
2013-04-13 09:30:00,51.8,38.4,28.44,East,87,3.6,3.6,60,0.00,,---,0.00,VWS V14.00,2013-04-13 14:30:00,
2013-04-13 09:35:00,52.7,37.5,28.44,East,87,3.1,4.0,56,0.00,,---,0.00,VWS V14.00,2013-04-13 14:35:00,
2013-04-13 09:40:00,53.4,36.7,28.44,SE,142,5.8,5.8,53,0.00,,---,0.00,VWS V14.00,2013-04-13 14:40:00,
2013-04-13 09:46:00,54.3,36.1,28.44,ESE,112,4.9,4.9,50,0.00,,---,0.00,VWS V14.00,2013-04-13 14:46:00,
2013-04-13 09:51:00,55.0,34.7,28.41,SE,143,4.9,4.9,46,0.00,,---,0.00,VWS V14.00,2013-04-13 14:51:00,
2013-04-13 09:56:00,55.6,34.0,28.41,ESE,111,3.1,5.8,44,0.00,,---,0.00,VWS V14.00,2013-04-13 14:56:00,
2013-04-13 10:02:00,56.1,33.4,28.41,SSE,152,5.4,5.4,42,0.00,,---,0.00,VWS V14.00,2013-04-13 15:02:00,
2013-04-13 10:07:00,56.5,32.5,28.41,ESE,121,4.5,4.5,40,0.00,,---,0.00,VWS V14.00,2013-04-13 15:07:00,
2013-04-13 10:12:00,56.3,32.9,28.41,SSE,156,5.8,7.6,41,0.00,,---,0.00,VWS V14.00,2013-04-13 15:12:00,
2013-04-13 10:17:00,56.5,33.1,28.41,SE,124,4.9,5.8,41,0.00,,---,0.00,VWS V14.00,2013-04-13 15:17:00,
2013-04-13 10:22:00,56.8,32.8,28.41,SE,133,6.3,6.3,40,0.00,,---,0.00,VWS V14.00,2013-04-13 15:22:00,
2013-04-13 10:27:00,57.2,33.1,28.41,ESE,114,4.0,5.8,40,0.00,,---,0.00,VWS V14.00,2013-04-13 15:27:00,
2013-04-13 10:32:00,57.9,33.8,28.41,ESE,115,6.3,8.3,40,0.00,,---,0.00,VWS V14.00,2013-04-13 15:32:00,
2013-04-13 10:37:00,58.5,33.0,28.41,South,183,5.4,6.3,38,0.00,,---,0.00,VWS V14.00,2013-04-13 15:37:00,
2013-04-13 10:43:00,59.0,32.8,28.41,SE,127,5.4,5.4,37,0.00,,---,0.00,VWS V14.00,2013-04-13 15:43:00,
2013-04-13 10:48:00,59.4,33.1,28.41,ESE,117,6.3,6.3,37,0.00,,---,0.00,VWS V14.00,2013-04-13 15:48:00,
2013-04-13 10:53:00,59.4,32.4,28.38,SE,137,5.4,5.4,36,0.00,,---,0.00,VWS V14.00,2013-04-13 15:53:00,
2013-04-13 10:58:00,59.0,32.1,28.38,ENE,58,4.0,5.4,36,0.00,,---,0.00,VWS V14.00,2013-04-13 15:58:00,
2013-04-13 11:03:00,58.6,32.5,28.38,SSE,166,5.4,6.3,37,0.00,,---,0.00,VWS V14.00,2013-04-13 16:03:00,
2013-04-13 11:09:00,58.6,32.5,28.38,SSE,150,4.0,4.0,37,0.00,,---,0.00,VWS V14.00,2013-04-13 16:09:00,
2013-04-13 11:14:00,59.0,32.8,28.38,SSE,151,4.0,7.6,37,0.00,,---,0.00,VWS V14.00,2013-04-13 16:14:00,
2013-04-13 11:19:00,59.4,32.4,28.38,ESE,115,5.8,8.3,36,0.00,,---,0.00,VWS V14.00,2013-04-13 16:19:00,
2013-04-13 11:24:00,60.1,33.8,28.38,ESE,123,5.4,6.3,37,0.00,,---,0.00,VWS V14.00,2013-04-13 16:24:00,
2013-04-13 11:29:00,60.4,33.4,28.38,ESE,108,3.6,5.8,36,0.00,,---,0.00,VWS V14.00,2013-04-13 16:29:00,
2013-04-13 11:35:00,61.0,33.9,28.38,SSE,168,5.8,6.7,36,0.00,,---,0.00,VWS V14.00,2013-04-13 16:35:00,
2013-04-13 11:40:00,61.5,34.3,28.38,ESE,113,3.6,6.3,36,0.00,,---,0.00,VWS V14.00,2013-04-13 16:40:00,
2013-04-13 11:45:00,62.2,35.0,28.38,ESE,103,4.0,4.0,36,0.00,,---,0.00,VWS V14.00,2013-04-13 16:45:00,
2013-04-13 11:50:00,63.1,35.1,28.35,ESE,111,5.8,11.0,35,0.00,,---,0.00,VWS V14.00,2013-04-13 16:50:00,
2013-04-13 11:55:00,63.7,34.8,28.35,SE,138,8.3,8.3,34,0.00,,---,0.00,VWS V14.00,2013-04-13 16:55:00,
2013-04-13 12:00:00,64.0,35.1,28.35,SE,125,5.4,7.2,34,0.00,,---,0.00,VWS V14.00,2013-04-13 17:00:00,
2013-04-13 12:05:00,64.6,35.6,28.35,SSE,166,8.7,8.7,34,0.00,,---,0.00,VWS V14.00,2013-04-13 17:05:00,
2013-04-13 12:10:00,64.9,35.2,28.35,SE,144,4.0,8.7,33,0.00,,---,0.00,VWS V14.00,2013-04-13 17:10:00,
2013-04-13 12:15:00,65.1,35.3,28.35,SSE,163,3.6,7.6,33,0.00,,---,0.00,VWS V14.00,2013-04-13 17:15:00,
2013-04-13 12:20:00,65.5,35.6,28.35,SSE,158,3.1,5.4,33,0.00,,---,0.00,VWS V14.00,2013-04-13 17:20:00,
2013-04-13 12:26:00,66.2,36.3,28.35,SSE,165,5.8,8.7,33,0.00,,---,0.00,VWS V14.00,2013-04-13 17:26:00,
2013-04-13 12:31:00,66.6,36.6,28.35,SSE,154,8.1,8.1,33,0.00,,---,0.00,VWS V14.00,2013-04-13 17:31:00,
2013-04-13 12:36:00,66.9,36.9,28.32,SE,124,4.9,8.1,33,0.00,,---,0.00,VWS V14.00,2013-04-13 17:36:00,
2013-04-13 12:41:00,67.1,37.1,28.32,SE,125,6.3,8.7,33,0.00,,---,0.00,VWS V14.00,2013-04-13 17:41:00,
2013-04-13 12:47:00,67.5,37.4,28.32,South,185,2.7,7.6,33,0.00,,---,0.00,VWS V14.00,2013-04-13 17:47:00,
2013-04-13 12:52:00,67.6,36.8,28.32,SSE,164,9.6,9.6,32,0.00,,---,0.00,VWS V14.00,2013-04-13 17:52:00,
2013-04-13 12:57:00,67.8,37.7,28.32,SE,134,5.8,5.8,33,0.00,,---,0.00,VWS V14.00,2013-04-13 17:57:00,
2013-04-13 13:02:00,67.6,37.5,28.32,ESE,112,4.5,10.5,33,0.00,,---,0.00,VWS V14.00,2013-04-13 18:02:00,
2013-04-13 13:07:00,67.8,37.7,28.29,East,82,8.3,8.3,33,0.00,,---,0.00,VWS V14.00,2013-04-13 18:07:00,
2013-04-13 13:12:00,67.8,37.7,28.29,SE,139,5.8,6.7,33,0.00,,---,0.00,VWS V14.00,2013-04-13 18:12:00,
2013-04-13 13:18:00,68.4,38.2,28.29,SE,137,4.9,6.3,33,0.00,,---,0.00,VWS V14.00,2013-04-13 18:18:00,
2013-04-13 13:23:00,68.9,38.6,28.29,ESE,123,6.3,6.3,33,0.00,,---,0.00,VWS V14.00,2013-04-13 18:23:00,
2013-04-13 13:27:00,69.1,38.8,28.29,ESE,116,4.0,5.4,33,0.00,,---,0.00,VWS V14.00,2013-04-13 18:27:00,
2013-04-13 13:28:00,69.3,39.0,28.29,SSE,159,5.4,7.6,33,0.00,,---,0.00,VWS V14.00,2013-04-13 18:28:00,
2013-04-13 13:33:00,69.6,39.3,28.29,SE,144,6.3,8.7,33,0.00,,---,0.00,VWS V14.00,2013-04-13 18:33:00,
2013-04-13 13:38:00,69.6,39.3,28.26,ESE,106,9.6,11.0,33,0.00,,---,0.00,VWS V14.00,2013-04-13 18:38:00,
2013-04-13 13:43:00,69.4,39.1,28.26,SE,124,5.8,10.1,33,0.00,,---,0.00,VWS V14.00,2013-04-13 18:43:00,
2013-04-13 13:48:00,69.4,39.1,28.26,SSE,164,12.8,14.1,33,0.00,,---,0.00,VWS V14.00,2013-04-13 18:48:00,
2013-04-13 13:53:00,69.6,39.3,28.26,SE,125,6.3,8.3,33,0.00,,---,0.00,VWS V14.00,2013-04-13 18:53:00,
2013-04-13 13:58:00,69.8,38.6,28.26,SE,128,10.1,10.1,32,0.00,,---,0.00,VWS V14.00,2013-04-13 18:58:00,
2013-04-13 14:03:00,70.0,39.6,28.26,SSW,193,7.6,8.1,33,0.00,,---,0.00,VWS V14.00,2013-04-13 19:03:00,
2013-04-13 14:08:00,70.2,39.0,28.23,SSE,156,9.6,9.6,32,0.00,,---,0.00,VWS V14.00,2013-04-13 19:08:00,
2013-04-13 14:14:00,70.2,39.0,28.23,SE,133,5.8,10.5,32,0.00,,---,0.00,VWS V14.00,2013-04-13 19:14:00,
2013-04-13 14:19:00,70.2,39.7,28.23,SE,127,8.1,12.3,33,0.00,,---,0.00,VWS V14.00,2013-04-13 19:19:00,
2013-04-13 14:24:00,70.2,39.7,28.23,SE,137,5.8,6.3,33,0.00,,---,0.00,VWS V14.00,2013-04-13 19:24:00,
2013-04-13 14:29:00,70.5,40.1,28.23,SSE,152,8.1,10.1,33,0.00,,---,0.00,VWS V14.00,2013-04-13 19:29:00,
2013-04-13 14:34:00,70.7,40.2,28.23,SE,139,8.1,8.1,33,0.00,,---,0.00,VWS V14.00,2013-04-13 19:34:00,
2013-04-13 14:39:00,70.7,40.2,28.20,South,186,8.7,10.5,33,0.00,,---,0.00,VWS V14.00,2013-04-13 19:39:00,
2013-04-13 14:44:00,70.5,40.1,28.20,SE,140,8.3,8.7,33,0.00,,---,0.00,VWS V14.00,2013-04-13 19:44:00,
2013-04-13 14:50:00,70.7,40.2,28.20,SSE,148,8.3,8.3,33,0.00,,---,0.00,VWS V14.00,2013-04-13 19:50:00,
2013-04-13 14:54:00,70.9,40.4,28.20,South,170,8.3,8.7,33,0.00,,---,0.00,VWS V14.00,2013-04-13 19:54:00,
2013-04-13 15:00:00,71.1,40.5,28.20,SSE,155,4.9,4.9,33,0.00,,---,0.00,VWS V14.00,2013-04-13 20:00:00,
2013-04-13 15:05:00,71.2,40.7,28.20,SSE,156,8.1,10.5,33,0.00,,---,0.00,VWS V14.00,2013-04-13 20:05:00,
2013-04-13 15:10:00,71.2,40.7,28.20,ESE,107,6.3,9.6,33,0.00,,---,0.00,VWS V14.00,2013-04-13 20:10:00,
2013-04-13 15:15:00,71.1,40.5,28.20,SE,137,5.8,8.3,33,0.00,,---,0.00,VWS V14.00,2013-04-13 20:15:00,
2013-04-13 15:20:00,71.2,40.7,28.17,SSE,150,5.4,13.2,33,0.00,,---,0.00,VWS V14.00,2013-04-13 20:20:00,
2013-04-13 15:25:00,71.4,40.8,28.17,SE,124,8.3,10.1,33,0.00,,---,0.00,VWS V14.00,2013-04-13 20:25:00,
2013-04-13 15:30:00,71.6,41.0,28.17,SE,130,11.0,11.0,33,0.00,,---,0.00,VWS V14.00,2013-04-13 20:30:00,
2013-04-13 15:36:00,71.8,41.2,28.17,South,181,4.0,4.0,33,0.00,,---,0.00,VWS V14.00,2013-04-13 20:36:00,
2013-04-13 15:40:00,71.4,40.8,28.17,South,182,4.9,10.1,33,0.00,,---,0.00,VWS V14.00,2013-04-13 20:40:00,
2013-04-13 15:46:00,71.2,40.7,28.17,SSE,158,11.0,11.0,33,0.00,,---,0.00,VWS V14.00,2013-04-13 20:46:00,
2013-04-13 15:51:00,71.2,41.5,28.14,SSE,155,8.1,10.1,34,0.00,,---,0.00,VWS V14.00,2013-04-13 20:51:00,
2013-04-13 15:56:00,70.9,41.1,28.14,South,172,12.3,16.8,34,0.00,,---,0.00,VWS V14.00,2013-04-13 20:56:00,
2013-04-13 16:01:00,70.5,40.8,28.14,SE,138,10.1,10.5,34,0.00,,---,0.00,VWS V14.00,2013-04-13 21:01:00,
2013-04-13 16:06:00,70.7,41.7,28.14,SE,131,12.8,15.4,35,0.00,,---,0.00,VWS V14.00,2013-04-13 21:06:00,
2013-04-13 16:11:00,70.7,41.7,28.14,SE,141,8.1,8.1,35,0.00,,---,0.00,VWS V14.00,2013-04-13 21:11:00,
2013-04-13 16:16:00,71.1,42.8,28.14,SE,126,13.2,13.2,36,0.00,,---,0.00,VWS V14.00,2013-04-13 21:16:00,
2013-04-13 16:21:00,70.9,42.6,28.14,South,184,8.1,8.7,36,0.00,,---,0.00,VWS V14.00,2013-04-13 21:21:00,
2013-04-13 16:26:00,70.5,42.3,28.14,SSE,163,8.3,11.0,36,0.00,,---,0.00,VWS V14.00,2013-04-13 21:26:00,
2013-04-13 16:32:00,69.8,42.4,28.14,SSE,166,10.5,10.5,37,0.00,,---,0.00,VWS V14.00,2013-04-13 21:32:00,
2013-04-13 16:37:00,69.4,42.8,28.11,SSE,147,8.7,13.2,38,0.00,,---,0.00,VWS V14.00,2013-04-13 21:37:00,
2013-04-13 16:42:00,69.6,43.6,28.11,SSE,153,5.8,8.3,39,0.00,,---,0.00,VWS V14.00,2013-04-13 21:42:00,
2013-04-13 16:47:00,70.0,43.9,28.11,ESE,119,5.8,5.8,39,0.00,,---,0.00,VWS V14.00,2013-04-13 21:47:00,
2013-04-13 16:52:00,70.3,44.2,28.11,SE,127,8.3,8.3,39,0.00,,---,0.00,VWS V14.00,2013-04-13 21:52:00,
2013-04-13 16:57:00,70.0,43.2,28.11,SE,128,7.6,8.3,38,0.00,,---,0.00,VWS V14.00,2013-04-13 21:57:00,
2013-04-13 17:02:00,69.6,43.6,28.11,SE,124,5.4,6.3,39,0.00,,---,0.00,VWS V14.00,2013-04-13 22:02:00,
2013-04-13 17:07:00,69.6,44.2,28.08,SE,133,8.1,8.3,40,0.00,,---,0.00,VWS V14.00,2013-04-13 22:07:00,
2013-04-13 17:12:00,69.6,44.2,28.08,SSE,152,5.4,7.6,40,0.00,,---,0.00,VWS V14.00,2013-04-13 22:12:00,
2013-04-13 17:17:00,69.6,44.2,28.08,ESE,123,8.1,12.8,40,0.00,,---,0.00,VWS V14.00,2013-04-13 22:17:00,
2013-04-13 17:22:00,69.8,44.4,28.08,SSE,164,12.3,13.2,40,0.00,,---,0.00,VWS V14.00,2013-04-13 22:22:00,
2013-04-13 17:27:00,69.4,44.1,28.08,SE,145,8.7,10.5,40,0.00,,---,0.00,VWS V14.00,2013-04-13 22:27:00,
2013-04-13 17:32:00,69.1,45.0,28.08,SSE,156,5.8,8.3,42,0.00,,---,0.00,VWS V14.00,2013-04-13 22:32:00,
2013-04-13 17:37:00,69.1,45.0,28.08,SSE,150,5.8,10.1,42,0.00,,---,0.00,VWS V14.00,2013-04-13 22:37:00,
2013-04-13 17:42:00,68.7,44.7,28.08,SE,134,13.2,13.2,42,0.00,,---,0.00,VWS V14.00,2013-04-13 22:42:00,
2013-04-13 17:47:00,68.4,45.0,28.08,SE,143,5.8,5.8,43,0.00,,---,0.00,VWS V14.00,2013-04-13 22:47:00,
2013-04-13 17:53:00,68.2,45.5,28.08,SSE,154,8.1,8.1,44,0.00,,---,0.00,VWS V14.00,2013-04-13 22:53:00,
2013-04-13 17:58:00,68.0,45.3,28.08,SSE,152,10.5,10.5,44,0.00,,---,0.00,VWS V14.00,2013-04-13 22:58:00,
2013-04-13 18:03:00,68.0,44.7,28.08,South,188,10.5,10.5,43,0.00,,---,0.00,VWS V14.00,2013-04-13 23:03:00,
2013-04-13 18:08:00,67.8,45.1,28.05,SE,140,8.1,10.5,44,0.00,,---,0.00,VWS V14.00,2013-04-13 23:08:00,
2013-04-13 18:13:00,67.8,45.1,28.05,SSE,150,6.3,12.3,44,0.00,,---,0.00,VWS V14.00,2013-04-13 23:13:00,
2013-04-13 18:18:00,67.8,44.5,28.05,SE,126,8.3,10.1,43,0.00,,---,0.00,VWS V14.00,2013-04-13 23:18:00,
2013-04-13 18:23:00,67.6,44.4,28.05,SE,127,8.7,11.0,43,0.00,,---,0.00,VWS V14.00,2013-04-13 23:23:00,
2013-04-13 18:28:00,67.6,44.4,28.05,SE,138,5.8,8.7,43,0.00,,---,0.00,VWS V14.00,2013-04-13 23:28:00,
2013-04-13 18:33:00,67.6,45.0,28.05,SSE,150,8.1,8.1,44,0.00,,---,0.00,VWS V14.00,2013-04-13 23:33:00,
2013-04-13 18:39:00,67.6,45.0,28.05,SE,143,7.6,7.6,44,0.00,,---,0.00,VWS V14.00,2013-04-13 23:39:00,
2013-04-13 18:44:00,67.5,44.8,28.05,SSE,161,8.1,8.1,44,0.00,,---,0.00,VWS V14.00,2013-04-13 23:44:00,
2013-04-13 18:49:00,67.6,45.6,28.05,SE,131,5.4,9.6,45,0.00,,---,0.00,VWS V14.00,2013-04-13 23:49:00,
2013-04-13 18:54:00,67.6,45.6,28.05,SE,134,5.4,8.3,45,0.00,,---,0.00,VWS V14.00,2013-04-13 23:54:00,
2013-04-13 18:59:00,67.8,45.7,28.05,SSE,148,6.3,6.7,45,0.00,,---,0.00,VWS V14.00,2013-04-13 23:59:00,
2013-04-13 19:04:00,67.8,45.7,28.05,SE,145,3.6,3.6,45,0.00,,---,0.00,VWS V14.00,2013-04-14 00:04:00,
2013-04-13 19:09:00,68.0,45.9,28.05,SSE,152,4.0,4.0,45,0.00,,---,0.00,VWS V14.00,2013-04-14 00:09:00,
2013-04-13 19:14:00,68.2,46.0,28.05,SSE,158,2.7,3.1,45,0.00,,---,0.00,VWS V14.00,2013-04-14 00:14:00,
2013-04-13 19:19:00,68.2,46.0,28.05,SE,132,3.6,4.9,45,0.00,,---,0.00,VWS V14.00,2013-04-14 00:19:00,
2013-04-13 19:24:00,68.2,46.0,28.05,SE,138,4.0,5.4,45,0.00,,---,0.00,VWS V14.00,2013-04-14 00:24:00,
2013-04-13 19:30:00,67.8,46.3,28.05,SE,138,2.7,2.7,46,0.00,,---,0.00,VWS V14.00,2013-04-14 00:30:00,
2013-04-13 19:35:00,67.5,46.0,28.05,SSE,164,2.7,2.7,46,0.00,,---,0.00,VWS V14.00,2013-04-14 00:35:00,
2013-04-13 19:40:00,66.9,45.5,28.05,SE,143,4.0,4.0,46,0.00,,---,0.00,VWS V14.00,2013-04-14 00:40:00,
2013-04-13 19:45:00,66.4,45.0,28.05,SE,143,3.1,3.6,46,0.00,,---,0.00,VWS V14.00,2013-04-14 00:45:00,
2013-04-13 19:50:00,65.8,45.6,28.02,South,169,2.2,2.7,48,0.00,,---,0.00,VWS V14.00,2013-04-14 00:50:00,
2013-04-13 19:55:00,65.3,45.1,28.02,South,186,2.7,2.7,48,0.00,,---,0.00,VWS V14.00,2013-04-14 00:55:00,
2013-04-13 20:00:00,64.8,45.2,28.02,SSE,153,3.1,4.0,49,0.00,,---,0.00,VWS V14.00,2013-04-14 01:00:00,
2013-04-13 20:06:00,64.2,45.2,28.02,SE,138,4.0,4.0,50,0.00,,---,0.00,VWS V14.00,2013-04-14 01:06:00,
2013-04-13 20:11:00,63.7,45.2,28.02,SSE,158,2.7,2.7,51,0.00,,---,0.00,VWS V14.00,2013-04-14 01:11:00,
2013-04-13 20:16:00,63.3,45.4,28.02,SSE,159,3.1,3.6,52,0.00,,---,0.00,VWS V14.00,2013-04-14 01:16:00,
2013-04-13 20:21:00,63.0,45.1,28.02,SSE,153,3.6,3.6,52,0.00,,---,0.00,VWS V14.00,2013-04-14 01:21:00,
2013-04-13 20:26:00,62.8,45.4,28.02,SE,125,3.1,3.6,53,0.00,,---,0.00,VWS V14.00,2013-04-14 01:26:00,
2013-04-13 20:31:00,62.6,45.2,28.02,SE,134,2.7,3.6,53,0.00,,---,0.00,VWS V14.00,2013-04-14 01:31:00,
2013-04-13 20:36:00,62.2,45.4,28.02,SE,141,3.1,4.0,54,0.00,,---,0.00,VWS V14.00,2013-04-14 01:36:00,
2013-04-13 20:41:00,62.2,45.9,28.02,ESE,122,5.4,5.8,55,0.00,,---,0.00,VWS V14.00,2013-04-14 01:41:00,
2013-04-13 20:46:00,61.9,45.5,28.02,SSE,158,5.8,6.3,55,0.00,,---,0.00,VWS V14.00,2013-04-14 01:46:00,
2013-04-13 20:52:00,61.9,46.0,28.02,SE,128,5.4,6.3,56,0.00,,---,0.00,VWS V14.00,2013-04-14 01:52:00,
2013-04-13 20:57:00,61.9,45.5,28.02,SSE,168,5.8,6.3,55,0.00,,---,0.00,VWS V14.00,2013-04-14 01:57:00,
2013-04-13 21:02:00,62.1,45.7,28.02,SE,135,4.0,6.7,55,0.00,,---,0.00,VWS V14.00,2013-04-14 02:02:00,
2013-04-13 21:07:00,62.2,45.4,28.02,SE,128,5.4,5.8,54,0.00,,---,0.00,VWS V14.00,2013-04-14 02:07:00,
2013-04-13 21:12:00,62.4,45.1,28.02,SSE,156,4.9,5.4,53,0.00,,---,0.00,VWS V14.00,2013-04-14 02:12:00,
2013-04-13 21:17:00,62.4,44.6,28.02,ESE,123,4.0,5.8,52,0.00,,---,0.00,VWS V14.00,2013-04-14 02:17:00,
2013-04-13 21:22:00,62.4,44.1,28.02,SE,137,4.9,5.8,51,0.00,,---,0.00,VWS V14.00,2013-04-14 02:22:00,
2013-04-13 21:27:00,62.4,43.5,28.02,SSE,147,10.1,10.1,50,0.00,,---,0.00,VWS V14.00,2013-04-14 02:27:00,
2013-04-13 21:32:00,62.2,43.4,28.02,SSE,165,5.8,7.6,50,0.00,,---,0.00,VWS V14.00,2013-04-14 02:32:00,
2013-04-13 21:37:00,62.2,42.9,28.02,ESE,121,8.3,12.3,49,0.00,,---,0.00,VWS V14.00,2013-04-14 02:37:00,
2013-04-13 21:42:00,62.6,42.7,28.02,SE,140,7.6,8.7,48,0.00,,---,0.00,VWS V14.00,2013-04-14 02:42:00,
2013-04-13 21:48:00,62.8,42.3,28.02,ESE,118,7.6,9.2,47,0.00,,---,0.00,VWS V14.00,2013-04-14 02:48:00,
2013-04-13 21:53:00,63.0,41.9,27.99,SSE,161,8.3,8.3,46,0.00,,---,0.00,VWS V14.00,2013-04-14 02:53:00,
2013-04-13 21:58:00,63.1,42.0,27.99,SW,216,8.1,11.9,46,0.00,,---,0.00,VWS V14.00,2013-04-14 02:58:00,
2013-04-13 22:03:00,63.3,42.2,27.99,South,175,5.8,8.3,46,0.00,,---,0.00,VWS V14.00,2013-04-14 03:03:00,
2013-04-13 22:08:00,63.5,41.8,27.99,SSE,149,11.0,11.0,45,0.00,,---,0.00,VWS V14.00,2013-04-14 03:08:00,
2013-04-13 22:13:00,63.5,42.4,27.99,SE,139,6.3,7.6,46,0.00,,---,0.00,VWS V14.00,2013-04-14 03:13:00,
2013-04-13 22:18:00,63.5,42.4,27.99,SSE,149,12.8,12.8,46,0.00,,---,0.00,VWS V14.00,2013-04-14 03:18:00,
2013-04-13 22:23:00,63.5,42.4,27.99,SE,126,8.1,10.5,46,0.00,,---,0.00,VWS V14.00,2013-04-14 03:23:00,
2013-04-13 22:28:00,63.3,42.2,27.99,SE,133,7.6,10.1,46,0.00,,---,0.00,VWS V14.00,2013-04-14 03:28:00,
2013-04-13 22:33:00,63.3,42.2,27.99,SE,143,8.1,8.1,46,0.00,,---,0.00,VWS V14.00,2013-04-14 03:33:00,
2013-04-13 22:38:00,63.3,42.2,27.99,SE,133,6.3,8.7,46,0.00,,---,0.00,VWS V14.00,2013-04-14 03:38:00,
2013-04-13 22:43:00,63.3,42.2,27.99,SSE,147,9.6,10.1,46,0.00,,---,0.00,VWS V14.00,2013-04-14 03:43:00,
2013-04-13 22:48:00,63.3,42.2,27.99,SE,133,6.3,8.1,46,0.00,,---,0.00,VWS V14.00,2013-04-14 03:48:00,
2013-04-13 22:53:00,63.3,42.2,27.99,SE,138,6.3,11.0,46,0.00,,---,0.00,VWS V14.00,2013-04-14 03:53:00,
2013-04-13 22:58:00,63.3,42.2,27.99,SSE,156,8.7,10.1,46,0.00,,---,0.00,VWS V14.00,2013-04-14 03:58:00,
2013-04-13 23:00:00,63.3,42.2,27.99,SE,140,8.1,11.0,46,0.00,,---,0.00,VWS V14.00,2013-04-14 04:00:00,
2013-04-13 23:01:00,63.3,42.2,27.99,SE,129,6.7,12.8,46,0.00,,---,0.00,VWS V14.00,2013-04-14 04:01:00,
2013-04-13 23:07:00,63.1,42.0,27.99,SE,141,6.3,12.3,46,0.00,,---,0.00,VWS V14.00,2013-04-14 04:07:00,
2013-04-13 23:12:00,63.1,42.0,27.99,SSE,154,11.0,13.2,46,0.00,,---,0.00,VWS V14.00,2013-04-14 04:12:00,
2013-04-13 23:17:00,63.0,41.9,27.99,SSE,153,11.0,11.0,46,0.00,,---,0.00,VWS V14.00,2013-04-14 04:17:00,
2013-04-13 23:22:00,63.0,41.9,27.99,SSE,165,10.1,10.1,46,0.00,,---,0.00,VWS V14.00,2013-04-14 04:22:00,
2013-04-13 23:27:00,63.0,41.9,27.99,SE,136,10.5,10.5,46,0.00,,---,0.00,VWS V14.00,2013-04-14 04:27:00,
2013-04-13 23:32:00,62.8,41.7,27.99,SSE,159,15.9,15.9,46,0.00,,---,0.00,VWS V14.00,2013-04-14 04:32:00,
2013-04-13 23:37:00,62.8,41.7,27.99,SE,145,8.1,12.3,46,0.00,,---,0.00,VWS V14.00,2013-04-14 04:37:00,
2013-04-13 23:42:00,62.8,41.7,27.99,SE,125,9.6,10.5,46,0.00,,---,0.00,VWS V14.00,2013-04-14 04:42:00,
2013-04-13 23:47:00,62.6,41.5,27.99,SSE,160,8.7,8.7,46,0.00,,---,0.00,VWS V14.00,2013-04-14 04:47:00,
2013-04-13 23:52:00,62.6,41.0,27.96,SE,129,10.1,15.0,45,0.00,,---,0.00,VWS V14.00,2013-04-14 04:52:00,
2013-04-13 23:57:00,62.4,41.4,27.96,SE,135,10.5,17.4,46,0.00,,---,0.00,VWS V14.00,2013-04-14 04:57:00,